Вернуться в каталог

STARLINK-4517

АктивенСвязьVLEO
NORAD 53390·PAYLOAD·🇺🇸 United States

Запущен Aug 10, 2022 с Cape Canaveral Space Force Station

Loading…

Ближайшие Пролёты (ближайшие 24 часа)

TLE

СвежийSource: CelesTrak SupGP

Эпоха: Sep 14, 2026, 14:08 UTC

1 53390C 22097C   26257.58937500  .00001011  00000+0  28926-4 0  2579
2 53390  53.1588 349.7648 0001143  78.0353  92.1655 15.35384969    10

Отслеживайте STARLINK-4517 в реальном времени с AllMySat

Download on the App Store